Location: Cherry Springs State Park
(41.6616°N, 77.8240°W)
Time: 15:56:10
(UTC-04:00)

Amateur Radio Satellites - All Passes

Search period start: 20 September 2017 15:26
Search period end: 21 September 2017 15:26
Location: Cherry Springs State Park, 41.6616°N, 77.8240°W

Satellite Date Start Highest point End Downlink Frequencies (MHz)
Time Altitude Azimuth
Oscar 19 20 Sep 15:39:13 15:39:39 10° 272° (W) 15:40:05 437.125/150
DX 1 20 Sep 15:41:49 15:45:27 27° 292° (WNW) 15:49:05 434.975-435.025
UKube-1 20 Sep 15:42:19 15:46:20 39° 289° (WNW) 15:50:20 .
YUBILEINY 20 Sep 15:50:32 15:55:08 15° 302° (WNW) 15:59:46 435.215
PCSat 20 Sep 15:55:46 16:01:08 67° 116° (ESE) 16:06:32 145.827
AO-7 20 Sep 15:56:11 16:04:32 78° 253° (WSW) 16:12:55 .
NO-84 20 Sep 15:59:09 16:02:19 27° 328° (NNW) 16:05:16 435.350 FM
ITUPSAT 1 20 Sep 16:05:56 16:10:29 40° 99° (E) 16:15:00 437.325
MOZHAYETS 4 20 Sep 16:11:25 16:15:56 48° 99° (E) 16:20:23
CUBESAT XI-V 20 Sep 16:29:16 16:32:02 16° 91° (E) 16:34:47 437.345
ITAMSAT 1 20 Sep 16:30:48 16:35:44 45° 261° (W) 16:40:42 435.822/435.867
DOVE 4 20 Sep 16:34:08 16:37:03 17° 66° (ENE) 16:39:53 437.250
SO-50 20 Sep 16:34:37 16:38:35 30° 312° (NW) 16:42:36 436.795
BEESAT 20 Sep 16:44:58 16:49:47 80° 285° (WNW) 16:54:34 436.000
KKS-1 20 Sep 17:00:55 17:01:34 10° 89° (E) 17:02:14 437.445
XW-2D 20 Sep 17:18:32 17:20:15 13° 64° (ENE) 17:21:58 145.860 - 145.880
HO-68 20 Sep 17:19:38 17:21:49 12° 48° (NE) 17:23:59 435.675
XW-2B 20 Sep 17:29:56 17:32:23 16° 66° (ENE) 17:34:50 145.730 - 145.750
XW-2F 20 Sep 17:32:49 17:35:19 17° 67° (ENE) 17:37:50 145.980 - 146.000
RS-15 20 Sep 17:35:35 17:44:57 29° 258° (WSW) 17:54:01 29.354- 29.394
PCSat 20 Sep 17:40:55 17:45:01 21° 315° (NW) 17:49:08 145.827
ITUPSAT 1 20 Sep 17:44:18 17:48:03 23° 295° (WNW) 17:51:46 437.325
MOZHAYETS 4 20 Sep 17:49:31 17:52:42 19° 296° (WNW) 17:55:52
XW-2C 20 Sep 17:50:05 17:53:23 28° 70° (ENE) 17:56:42 145.795 - 145.815
CUTE-I 20 Sep 17:53:19 17:58:03 34° 67° (ENE) 18:02:47 437.470
AO-7 20 Sep 17:54:18 17:58:31 15° 271° (W) 18:02:46 .
LilacSat-2 20 Sep 17:57:42 18:01:17 37° 72° (ENE) 18:04:53 437.200
CUBESAT XI-V 20 Sep 18:05:12 18:09:43 52° 287° (WNW) 18:14:11 437.345
NUDT-PHONESAT 20 Sep 18:07:09 18:10:28 31° 71° (ENE) 18:13:48 437.300
DOVE 4 20 Sep 18:10:06 18:14:27 44° 261° (W) 18:18:36 437.250
KAITUO 1B 20 Sep 18:29:24 18:33:09 62° 75° (ENE) 18:36:55 145.475/437.950
KKS-1 20 Sep 18:34:10 18:38:36 73° 286° (WNW) 18:43:01 437.445
CUBEBUG 2 20 Sep 18:35:41 18:36:56 11° 61° (ENE) 18:38:11 437.445
CUTE 1.7 + AOD 2 20 Sep 18:40:47 18:44:09 23° 68° (ENE) 18:47:31 437.475
XW-2D 20 Sep 18:50:15 18:54:00 49° 262° (W) 18:57:45 145.860 - 145.880
HO-68 20 Sep 19:01:06 19:08:02 58° 68° (ENE) 19:15:01 435.675
XW-2B 20 Sep 19:02:43 19:06:16 36° 262° (W) 19:09:51 145.730 - 145.750
XW-2F 20 Sep 19:05:37 19:09:09 35° 263° (W) 19:12:42 145.980 - 146.000
STARS 20 Sep 19:08:34 19:12:58 76° 284° (WNW) 19:17:21 437.465
XW-2A 20 Sep 19:17:16 19:19:49 20° 69° (ENE) 19:22:25 145.665 - 145.685
XW-2C 20 Sep 19:24:39 19:27:33 20° 266° (W) 19:30:28 145.795 - 145.815
LilacSat-2 20 Sep 19:33:17 19:35:41 16° 268° (W) 19:38:05 437.200
CUTE-I 20 Sep 19:33:24 19:38:04 31° 264° (W) 19:42:45 437.470
NUDT-PHONESAT 20 Sep 19:41:51 19:44:23 17° 267° (W) 19:46:57 437.300
AO-73 20 Sep 19:43:09 19:46:01 17° 64° (ENE) 19:48:54 145.935
ZACube-1 20 Sep 19:43:33 19:46:38 20° 66° (ENE) 19:49:48 437.345
Oscar 11 20 Sep 19:47:06 19:49:20 14° 63° (ENE) 19:51:34 .
STRAND 1 20 Sep 19:47:44 19:51:48 23° 94° (E) 19:55:51 437.568
SEEDS 20 Sep 19:54:10 19:58:25 90° 253° (WSW) 20:02:41 437.485
CUBEBUG 2 20 Sep 20:08:42 20:12:53 71° 259° (W) 20:17:13 437.445
CUTE 1.7 + AOD 2 20 Sep 20:15:57 20:19:47 32° 264° (W) 20:23:39 437.475
UWE-3 20 Sep 20:22:49 20:27:04 87° 251° (WSW) 20:31:28 435.000/436.395/437.385
BEESAT 3 20 Sep 20:24:41 20:28:03 26° 114° (ESE) 20:31:28 437.485
AAUSAT CUBESAT 2 20 Sep 20:27:30 20:31:40 85° 259° (W) 20:35:51 437.432
Tancredo 1 20 Sep 20:30:02 20:32:11 21° 136° (SE) 20:34:20 437.200
XW-2A 20 Sep 20:49:44 20:52:26 22° 265° (W) 20:55:08 145.665 - 145.685
HO-68 20 Sep 20:50:14 20:56:07 27° 266° (W) 21:02:02 435.675
DELFI C3 20 Sep 20:54:47 20:57:08 15° 65° (ENE) 20:59:28 145.870
NO-84 20 Sep 20:55:00 20:57:37 27° 31° (NNE) 21:00:08 435.350 FM
Max Valier Satellite 20 Sep 21:07:24 21:09:29 15° 66° (ENE) 21:11:35 145.860
AO-73 20 Sep 21:17:45 21:21:51 44° 262° (W) 21:26:05 145.935
ZACube-1 20 Sep 21:18:36 21:22:37 39° 263° (W) 21:26:45 437.345
Oscar 11 20 Sep 21:20:40 21:24:57 58° 260° (W) 21:29:17 .
STRAND 1 20 Sep 21:26:17 21:31:07 43° 290° (WNW) 21:35:57 437.568
nSIGHT-1 20 Sep 21:48:02 21:50:46 26° 135° (SE) 21:53:31 .
AO-85 20 Sep 22:00:15 22:04:09 84° 306° (NW) 22:08:06 145.980
BEESAT 2 20 Sep 22:00:35 22:04:36 90° 301° (WNW) 22:08:40 435.950
BEESAT 3 20 Sep 22:01:58 22:05:31 29° 311° (NW) 22:09:07 437.485
Tancredo 1 20 Sep 22:04:08 22:06:37 33° 332° (NNW) 22:09:08 437.200
YUBILEINY 20 Sep 22:05:26 22:07:20 11° 54° (NE) 22:09:13 435.215
EO-88 20 Sep 22:13:56 22:17:36 71° 75° (ENE) 22:21:16 145.990 - 145.960
FO-29 20 Sep 22:16:30 22:21:52 65° 102° (ESE) 22:27:47 435.910
UNISAT 6 20 Sep 22:26:28 22:30:34 30° 96° (E) 22:34:39 437.425
DELFI C3 20 Sep 22:27:46 22:31:32 42° 261° (W) 22:35:18 145.870
NO-84 20 Sep 22:32:30 22:34:53 23° 230° (SW) 22:37:12 435.350 FM
ISS 20 Sep 22:37:47 22:41:02 76° 143° (SE) 22:44:20 437.550
Max Valier Satellite 20 Sep 22:39:30 22:42:58 38° 262° (W) 22:46:29 145.860
PRISM 20 Sep 22:50:43 22:54:05 25° 96° (E) 22:57:26 437.425
TIGRISAT 20 Sep 22:50:50 22:55:21 48° 99° (E) 22:59:54 435.000
ESTCUBE 1 20 Sep 22:58:30 23:02:10 25° 67° (ENE) 23:05:51 437.505/2401.250
PCSat 20 Sep 23:02:17 23:04:08 12° 35° (NE) 23:06:00 145.827
LO-87 20 Sep 23:21:18 23:24:45 58° 75° (ENE) 23:28:15 145.935 - 145.965
nSIGHT-1 20 Sep 23:23:55 23:26:59 39° 332° (NNW) 23:30:04 .
SO-50 20 Sep 23:24:41 23:28:50 33° 48° (NE) 23:33:01 436.795
Tancredo 1 20 Sep 23:40:44 23:41:49 12° 351° (N) 23:42:54 437.200
BEESAT 2 20 Sep 23:41:11 23:42:57 12° 321° (NW) 23:44:43 435.950
VELOX 1 20 Sep 23:43:31 23:45:52 14° 63° (ENE) 23:48:12 145.980
AO-85 20 Sep 23:44:06 23:45:13 11° 323° (NW) 23:46:20 145.980
POLYITAN 1 20 Sep 23:56:58 23:58:37 12° 90° (E) 00:00:15 437.675
YUBILEINY 20 Sep 23:57:48 00:06:23 57° 77° (ENE) 00:14:57 435.215
EO-79 21 Sep 00:01:46 00:03:56 14° 91° (E) 00:06:06 145.935-145.965
FO-29 21 Sep 00:03:05 00:06:34 18° 297° (WNW) 00:10:13 435.910
UNISAT 6 21 Sep 00:03:11 00:07:10 29° 292° (WNW) 00:11:11 437.425
SPROUT 21 Sep 00:06:15 00:09:57 30° 69° (ENE) 00:13:40 437.525
QB50P2 21 Sep 00:13:18 00:16:31 20° 94° (E) 00:19:43 145.880/145.840
ISS 21 Sep 00:15:10 00:17:49 22° 341° (NNW) 00:20:29 437.550
PRISM 21 Sep 00:25:55 00:29:17 26° 292° (WNW) 00:32:39 437.425
TIGRISAT 21 Sep 00:28:28 00:31:40 19° 295° (WNW) 00:34:52 435.000
ESTCUBE 1 21 Sep 00:34:44 00:38:48 33° 263° (W) 00:42:54 437.505/2401.250
PCSat 21 Sep 00:43:25 00:48:46 56° 56° (ENE) 00:54:04 145.827
AIST 2D 21 Sep 00:50:10 00:53:36 50° 286° (WNW) 00:57:01 435.315
NANOSAT C BR1 21 Sep 00:51:29 00:55:34 43° 99° (E) 00:59:38 145.865
DX 1 21 Sep 01:01:22 01:04:56 25° 67° (ENE) 01:08:30 434.975-435.025
nSIGHT-1 21 Sep 01:01:57 01:03:59 15° 352° (N) 01:06:02 .
UKube-1 21 Sep 01:02:09 01:04:56 17° 64° (ENE) 01:07:42 .
SO-50 21 Sep 01:05:12 01:09:14 30° 245° (WSW) 01:13:17 436.795
Tancredo 1 21 Sep 01:15:59 01:17:17 13° 11° (NNE) 01:18:35 437.200
VELOX 1 21 Sep 01:17:29 01:21:49 58° 259° (W) 01:26:11 145.980
DUCHIFAT 1 21 Sep 01:21:40 01:25:57 85° 103° (ESE) 01:30:12 145.980
50 SAT 21 Sep 01:25:15 01:28:29 53° 74° (ENE) 01:31:44 437.505
POLYITAN 1 21 Sep 01:30:32 01:34:45 60° 286° (WNW) 01:38:59 437.675
EO-79 21 Sep 01:35:49 01:39:59 52° 287° (WNW) 01:44:08 145.935-145.965
SPROUT 21 Sep 01:42:28 01:45:50 23° 265° (W) 01:49:14 437.525
QB50P2 21 Sep 01:48:29 01:52:22 34° 290° (WNW) 01:56:15 145.880/145.840
ISS 21 Sep 01:53:16 01:55:12 14° 2° (N) 01:57:07 437.550
YUBILEINY 21 Sep 01:55:22 02:02:40 31° 277° (W) 02:10:00 435.215
Oscar 19 21 Sep 02:06:10 02:10:46 31° 96° (E) 02:15:19 437.125/150
BUGSAT 1 21 Sep 02:09:46 02:13:59 77° 105° (ESE) 02:18:11 437.445
BEESAT 21 Sep 02:16:18 02:18:50 14° 61° (ENE) 02:21:22 436.000
M-CUBED/EXP-1 PRIME 21 Sep 02:23:07 02:26:24 52° 291° (WNW) 02:29:35 437.505
PCSat 21 Sep 02:27:46 02:31:43 21° 254° (WSW) 02:35:39 145.827
NANOSAT C BR1 21 Sep 02:28:07 02:30:56 17° 295° (WNW) 02:33:43 145.865
UKube-1 21 Sep 02:36:27 02:40:34 45° 260° (W) 02:44:43 .
DX 1 21 Sep 02:37:12 02:40:59 29° 263° (W) 02:44:48 434.975-435.025
nSIGHT-1 21 Sep 02:39:02 02:41:17 17° 12° (NNE) 02:43:31 .
Tancredo 1 21 Sep 02:49:47 02:52:24 42° 30° (NNE) 02:55:01 437.200
Gurwin Techsat 1B 21 Sep 03:04:50 03:10:10 76° 103° (ESE) 03:15:28 435.225
ITUPSAT 1 21 Sep 03:12:38 03:17:13 48° 71° (ENE) 03:21:50 437.325
MOZHAYETS 4 21 Sep 03:13:09 03:17:33 46° 72° (ENE) 03:22:00
O/OREOS (USA 219) 21 Sep 03:19:05 03:23:28 55° 108° (ESE) 03:27:54 437.305
ISS 21 Sep 03:29:41 03:32:31 25° 22° (NNE) 03:35:20 437.550
CUBESAT XI-V 21 Sep 03:32:47 03:35:49 17° 64° (ENE) 03:38:51 437.345
Oscar 19 21 Sep 03:45:28 03:50:01 32° 293° (WNW) 03:54:32 437.125/150
BUGSAT 1 21 Sep 03:48:06 03:48:42 10° 299° (WNW) 03:49:18 437.445
BEESAT 21 Sep 03:51:18 03:56:02 68° 258° (WSW) 04:00:48 436.000
AO-7 21 Sep 03:57:59 04:05:24 35° 97° (E) 04:12:46 .
KKS-1 21 Sep 03:59:11 04:00:29 11° 60° (ENE) 04:01:47 437.445
nSIGHT-1 21 Sep 04:14:57 04:18:09 54° 31° (NNE) 04:21:21 .
Tancredo 1 21 Sep 04:24:56 04:26:44 16° 226° (SW) 04:28:32 437.200
STARS 21 Sep 04:33:20 04:33:37 10° 60° (ENE) 04:33:54 437.465
BEESAT 3 21 Sep 04:41:03 04:44:00 19° 44° (NE) 04:46:55 437.485
ITAMSAT 1 21 Sep 04:42:59 04:48:09 62° 102° (ESE) 04:53:19 435.822/435.867
Gurwin Techsat 1B 21 Sep 04:46:27 04:49:28 15° 300° (WNW) 04:52:28 435.225
AO-85 21 Sep 04:51:31 04:53:42 13° 40° (NE) 04:55:57 145.980
MOZHAYETS 4 21 Sep 04:51:51 04:54:56 18° 268° (W) 04:58:03
ITUPSAT 1 21 Sep 04:52:03 04:55:17 18° 268° (W) 04:58:32 437.325
O/OREOS (USA 219) 21 Sep 05:00:20 05:03:14 17° 306° (NW) 05:06:11 437.305
ISS 21 Sep 05:05:56 05:09:10 54° 219° (SW) 05:12:24 437.550
CUBESAT XI-V 21 Sep 05:08:09 05:12:45 53° 260° (W) 05:17:22 437.345
KKS-1 21 Sep 05:31:59 05:36:23 78° 257° (WSW) 05:40:50 437.445
RS-15 21 Sep 05:43:53 05:55:26 51° 110° (ESE) 06:07:04 29.354- 29.394
AO-7 21 Sep 05:50:25 05:58:24 54° 296° (WNW) 06:06:21 .
nSIGHT-1 21 Sep 05:51:56 05:54:13 18° 227° (SW) 05:56:29 .
STARS 21 Sep 06:04:54 06:09:15 84° 254° (WSW) 06:13:39 437.465
DOVE 4 21 Sep 06:07:58 06:11:58 41° 99° (E) 06:16:06 437.250
CUTE-I 21 Sep 06:11:43 06:13:56 12° 89° (E) 06:16:09 437.470
BEESAT 2 21 Sep 06:17:58 06:21:59 55° 55° (NE) 06:25:54 435.950
BEESAT 3 21 Sep 06:17:59 06:21:46 44° 243° (WSW) 06:25:29 437.485
XW-2D 21 Sep 06:23:24 06:25:50 16° 93° (E) 06:28:13 145.860 - 145.880
ITAMSAT 1 21 Sep 06:23:42 06:27:07 18° 299° (WNW) 06:30:31 435.822/435.867
AO-85 21 Sep 06:30:14 06:34:41 84° 56° (ENE) 06:39:30 145.980
XW-2B 21 Sep 06:35:12 06:38:10 21° 94° (E) 06:41:06 145.730 - 145.750
XW-2F 21 Sep 06:37:38 06:40:36 21° 94° (E) 06:43:33 145.980 - 146.000
XW-2C 21 Sep 06:55:53 06:59:29 38° 98° (E) 07:03:02 145.795 - 145.815
STRAND 1 21 Sep 07:03:39 07:08:12 34° 68° (ENE) 07:12:46 437.568
LilacSat-2 21 Sep 07:04:28 07:08:15 53° 100° (E) 07:11:59 437.200
NUDT-PHONESAT 21 Sep 07:10:24 07:13:57 40° 98° (E) 07:17:28 437.300
KAITUO 1B 21 Sep 07:34:00 07:37:47 88° 102° (ESE) 07:41:30 145.475/437.950
SEEDS 21 Sep 07:39:04 07:41:25 15° 91° (E) 07:43:45 437.485
AO-7 21 Sep 07:46:09 07:49:18 13° 317° (NW) 07:52:28 .
DOVE 4 21 Sep 07:46:38 07:49:23 17° 294° (WNW) 07:52:10 437.250
CUTE-I 21 Sep 07:49:13 07:54:34 80° 286° (WNW) 07:59:54 437.470
RS-15 21 Sep 07:55:55 08:07:55 55° 313° (NW) 08:19:58 29.354- 29.394
XW-2D 21 Sep 07:56:37 08:00:06 34° 288° (WNW) 08:03:33 145.860 - 145.880
BEESAT 2 21 Sep 07:57:14 07:59:14 13° 251° (WSW) 08:01:12 435.950
CUBEBUG 2 21 Sep 07:59:13 08:03:05 25° 94° (E) 08:06:58 437.445
CUTE 1.7 + AOD 2 21 Sep 08:00:04 08:04:05 41° 98° (E) 08:08:05 437.475
XW-2B 21 Sep 08:09:06 08:12:19 26° 290° (WNW) 08:15:30 145.730 - 145.750
AAUSAT CUBESAT 2 21 Sep 08:10:41 08:12:57 14° 91° (E) 08:15:11 437.432
XW-2A 21 Sep 08:10:49 08:13:25 20° 95° (E) 08:16:00 145.665 - 145.685
XW-2F 21 Sep 08:11:30 08:14:40 25° 290° (WNW) 08:17:49 145.980 - 146.000
UWE-3 21 Sep 08:12:36 08:16:03 20° 93° (E) 08:19:30 435.000/436.395/437.385
AO-85 21 Sep 08:13:15 08:14:35 11° 251° (WSW) 08:15:55 145.980
HO-68 21 Sep 08:15:49 08:22:56 60° 102° (ESE) 08:30:00 435.675
FO-29 21 Sep 08:30:15 08:34:59 27° 66° (ENE) 08:39:24 435.910
XW-2C 21 Sep 08:31:04 08:33:20 15° 294° (WNW) 08:35:36 145.795 - 145.815
LilacSat-2 21 Sep 08:40:37 08:42:02 12° 296° (WNW) 08:43:27 437.200
STRAND 1 21 Sep 08:43:00 08:47:22 29° 264° (W) 08:51:47 437.568
NUDT-PHONESAT 21 Sep 08:45:27 08:47:28 14° 294° (WNW) 08:49:27 437.300
AO-73 21 Sep 09:05:10 09:09:22 34° 97° (E) 09:13:30 145.935
ZACube-1 21 Sep 09:06:09 09:10:28 39° 97° (E) 09:14:45 437.345
Oscar 11 21 Sep 09:08:01 09:11:36 24° 95° (E) 09:15:09 .
SEEDS 21 Sep 09:13:19 09:17:20 46° 287° (WNW) 09:21:19 437.485
UNISAT 6 21 Sep 09:25:45 09:29:18 25° 67° (ENE) 09:32:54 437.425
CUTE-I 21 Sep 09:32:05 09:33:45 11° 303° (WNW) 09:35:24 437.470
CUBEBUG 2 21 Sep 09:35:28 09:39:41 34° 290° (WNW) 09:43:58 437.445
CUTE 1.7 + AOD 2 21 Sep 09:36:45 09:39:35 18° 294° (WNW) 09:42:24 437.475
PRISM 21 Sep 09:40:25 09:43:22 19° 66° (ENE) 09:46:18 437.425
XW-2A 21 Sep 09:43:21 09:46:04 22° 290° (WNW) 09:48:45 145.665 - 145.685
AAUSAT CUBESAT 2 21 Sep 09:44:41 09:48:37 45° 287° (WNW) 09:52:32 437.432
UWE-3 21 Sep 09:48:16 09:52:38 42° 289° (WNW) 09:57:01 435.000/436.395/437.385
TIGRISAT 21 Sep 09:49:40 09:53:42 40° 71° (ENE) 09:57:50 435.000
HO-68 21 Sep 10:04:17 10:10:12 29° 300° (WNW) 10:16:06 435.675
DELFI C3 21 Sep 10:04:39 10:07:43 22° 94° (E) 10:10:47 145.870
Max Valier Satellite 21 Sep 10:09:37 10:12:14 18° 93° (E) 10:14:50 145.860
RS-15 21 Sep 10:14:20 10:24:05 26° 344° (NNW) 10:33:40 29.354- 29.394
FO-29 21 Sep 10:14:29 10:19:57 40° 261° (W) 10:25:00 435.910
AO-73 21 Sep 10:41:43 10:45:23 24° 293° (WNW) 10:49:03 145.935
ZACube-1 21 Sep 10:43:00 10:46:28 22° 294° (WNW) 10:49:55 437.345
Oscar 11 21 Sep 10:43:56 10:47:42 29° 291° (WNW) 10:51:27 .
EO-79 21 Sep 10:55:36 10:56:50 11° 62° (ENE) 10:58:04 145.935-145.965
UNISAT 6 21 Sep 11:02:07 11:05:53 29° 264° (W) 11:09:45 437.425
QB50P2 21 Sep 11:06:37 11:09:15 16° 65° (ENE) 11:11:54 145.880/145.840
YUBILEINY 21 Sep 11:10:17 11:12:13 11° 72° (ENE) 11:14:07 435.215
PRISM 21 Sep 11:14:38 11:18:24 35° 262° (W) 11:22:10 437.425
EO-88 21 Sep 11:15:45 11:19:26 88° 283° (WNW) 11:23:05 145.990 - 145.960
AIST 2D 21 Sep 11:23:58 11:27:26 52° 75° (ENE) 11:30:54 435.315
TIGRISAT 21 Sep 11:27:39 11:30:35 18° 268° (W) 11:33:34 435.000
M-CUBED/EXP-1 PRIME 21 Sep 11:35:18 11:38:08 18° 61° (ENE) 11:40:52 437.505
DELFI C3 21 Sep 11:39:08 11:42:27 27° 290° (WNW) 11:45:45 145.870
Max Valier Satellite 21 Sep 11:42:49 11:46:06 29° 289° (WNW) 11:49:23 145.860
NANOSAT C BR1 21 Sep 11:43:37 11:47:20 32° 70° (ENE) 11:51:06 145.865
O/OREOS (USA 219) 21 Sep 11:51:01 11:53:22 14° 51° (NE) 11:55:42 437.305
DUCHIFAT 1 21 Sep 12:13:10 12:17:15 61° 75° (ENE) 12:21:25 145.980
LO-87 21 Sep 12:20:53 12:24:29 72° 101° (ESE) 12:28:05 145.935 - 145.965
POLYITAN 1 21 Sep 12:22:41 12:26:53 81° 259° (W) 12:31:08 437.675
ESTCUBE 1 21 Sep 12:26:20 12:30:43 49° 100° (E) 12:35:03 437.505/2401.250
EO-79 21 Sep 12:27:49 12:31:59 70° 258° (WSW) 12:36:12 145.935-145.965
RS-15 21 Sep 12:32:11 12:42:09 28° 20° (NNE) 12:51:45 29.354- 29.394
QB50P2 21 Sep 12:40:38 12:44:40 45° 261° (W) 12:48:44 145.880/145.840
Gurwin Techsat 1B 21 Sep 12:48:48 12:52:06 17° 61° (ENE) 12:55:23 435.225
YUBILEINY 21 Sep 12:58:35 13:07:08 65° 92° (E) 13:15:43 435.215
BUGSAT 1 21 Sep 12:59:22 13:03:15 51° 73° (ENE) 13:07:12 437.445
VELOX 1 21 Sep 13:07:31 13:11:08 25° 95° (E) 13:14:43 145.980
M-CUBED/EXP-1 PRIME 21 Sep 13:08:03 13:12:16 46° 255° (WSW) 13:16:15 437.505
AO-7 21 Sep 13:11:26 13:14:03 12° 42° (NE) 13:16:41 .
NANOSAT C BR1 21 Sep 13:19:54 13:23:05 21° 266° (W) 13:26:18 145.865
Oscar 19 21 Sep 13:22:56 13:27:54 48° 71° (ENE) 13:32:53 437.125/150
SPROUT 21 Sep 13:26:35 13:30:49 56° 101° (E) 13:35:01 437.525
O/OREOS (USA 219) 21 Sep 13:28:43 13:33:20 74° 250° (WSW) 13:37:55 437.305
NO-84 21 Sep 13:47:27 13:50:53 30° 131° (SE) 13:54:05 435.350 FM
DUCHIFAT 1 21 Sep 13:52:08 13:53:19 11° 270° (W) 13:54:32 145.980
ESTCUBE 1 21 Sep 14:04:14 14:07:06 17° 296° (WNW) 14:09:58 437.505/2401.250
50 SAT 21 Sep 14:17:30 14:20:44 48° 101° (E) 14:23:55 437.505
UKube-1 21 Sep 14:23:15 14:26:55 27° 96° (E) 14:30:34 .
DX 1 21 Sep 14:24:22 14:28:31 43° 99° (E) 14:32:39 434.975-435.025
ITAMSAT 1 21 Sep 14:25:12 14:27:35 13° 58° (ENE) 14:29:57 435.822/435.867
Gurwin Techsat 1B 21 Sep 14:26:11 14:31:27 68° 258° (WSW) 14:36:46 435.225
BUGSAT 1 21 Sep 14:37:20 14:38:56 12° 269° (W) 14:40:32 437.445
VELOX 1 21 Sep 14:43:43 14:47:33 30° 291° (WNW) 14:51:22 145.980
RS-15 21 Sep 14:45:38 14:57:39 65° 50° (NE) 15:08:58 29.354- 29.394
AO-7 21 Sep 14:56:56 15:04:51 50° 63° (ENE) 15:12:46 .
YUBILEINY 21 Sep 14:57:24 15:04:35 28° 293° (WNW) 15:11:48 435.215
Oscar 19 21 Sep 15:03:32 15:07:26 21° 267° (W) 15:11:22 437.125/150
SPROUT 21 Sep 15:03:59 15:06:13 14° 297° (WNW) 15:08:27 437.525
MOZHAYETS 4 21 Sep 15:10:42 15:11:34 10° 88° (E) 15:12:27
ITUPSAT 1 21 Sep 15:14:53 15:16:43 12° 90° (E) 15:18:33 437.325
